Location: Schommer Observatory
(40.5200°N, 74.4500°W)
Time: 08:14:26
(UTC-05:00)

Envisat - Pass Details

Date: 11 October 2017
Orbit: 764 x 766 km, 98.2° (Epoch: 13 December)

Event Time Altitude Azimuth Distance (km) Brightness Sun altitude
Exits shadow 22:10:58 14° 288° (WNW) 2,063 5.8 -42.5°
Drops below altitude 10° 22:12:25 10° 304° (NW) 2,309 6.1 -42.7°
Sets 22:15:46 0° 327° (NNW) 3,242 6.9 -43.2°
